Weather History for K4MR - March, 2014

Change the Weather History Date:

Monday, March 31, 2014

  Actual Average (KROW) Record (KROW)
Temperature  
Mean Temperature 59 °F 56 °F  
Max Temperature 72 °F 73 °F 92 °F (2012)
Min Temperature 46 °F 40 °F 21 °F (1972)
Degree Days  
Heating Degree Days 6 9  
Month to date heating degree days 388  
Since 1 July heating degree days 3094  
Cooling Degree Days 0 0  
Month to date cooling degree days 3  
Year to date cooling degree days 3  
Growing Degree Days 9 (Base 50)    
Moisture  
Dew Point 8 °F    
Average Humidity 13    
Maximum Humidity 25    
Minimum Humidity 7    
Precipitation  
Precipitation 0.00 in 0.02 in 0.54 in (1905)
Month to date precipitation 0.51  
Year to date precipitation 1.31  
Sea Level Pressure  
Sea Level Pressure 29.82 in    
Wind  
Wind Speed 17 mph (West)    
Max Wind Speed 29 mph    
Max Gust Speed 39 mph    
Visibility 10 miles    
Events      
T = Trace of Precipitation, MM = Missing Value Source: NWS Daily Summary

Daily Weather History Graph

Daily Weather History Graph

Search for Another Location

Airport or City:

Trip Planner

Search our weather history database for the weather conditions in past years. The results will help you decide how hot, cold, wet, or windy it might be!

Date:

Astronomy

Mar. 31, 2014 Rise Set
Actual Time 6:43 AM MDT 7:15 PM MDT
Civil Twilight 6:18 AM MDT 7:40 PM MDT
Nautical Twilight 5:48 AM MDT 8:10 PM MDT
Astronomical Twilight 5:18 AM MDT 8:40 PM MDT
Moon 7:11 AM MDT (3/31) 8:32 PM MDT (3/31)
Length of Visible Light 13h 22m
Length of Day
12h 31m
New Moon, 1% of the Moon is Illuminated
Mar 31
New Moon
Apr 7
First Quarter
Apr 15
Full
Apr 22
Last Quarter
Apr 29
New

Hourly Weather History & Observations

Time (MDT) Temp. Windchill Dew Point Humidity Pressure Visibility Wind Dir Wind Speed Gust Speed Precip Events Conditions
12:56 AM 64.4 °F - 9.0 °F 11% 29.68 in 12.0 mi West 18.4 mph 27.6 mph N/A   Mostly Cloudy
1:56 AM 62.1 °F - 9.0 °F 12% 29.70 in 12.0 mi West 17.3 mph 27.6 mph N/A   Mostly Cloudy
2:56 AM 53.8 °F - 6.8 °F 15% 29.72 in 12.0 mi WSW 9.2 mph - N/A   Clear
3:56 AM 51.4 °F - 5.7 °F 16% 29.73 in 12.0 mi West 12.7 mph - N/A   Clear
4:56 AM 53.6 °F - 10.9 °F 18% 29.73 in 12.0 mi West 11.5 mph - N/A   Clear
5:56 AM 47.8 °F - 10.8 °F 22% 29.78 in 12.0 mi West 12.7 mph - N/A   Clear
6:56 AM 46.0 °F 39.9 °F 12.0 °F 25% 29.81 in 12.0 mi WSW 13.8 mph - N/A   Clear
7:56 AM 51.6 °F - 14.2 °F 23% 29.84 in 4.0 mi West 10.4 mph - N/A   Clear
8:56 AM 56.7 °F - 13.5 °F 18% 29.85 in 9.0 mi West 19.6 mph 29.9 mph N/A   Clear
9:07 AM 57.2 °F - 12.2 °F 17% 29.98 in 6.0 mi West 23.0 mph 29.9 mph N/A   Partly Cloudy
9:56 AM 59.4 °F - 11.5 °F 15% 29.86 in 11.0 mi West 25.3 mph 33.4 mph N/A   Clear
10:22 AM 60.8 °F - 10.4 °F 14% 30.00 in 8.0 mi West 25.3 mph 32.2 mph N/A   Partly Cloudy
10:56 AM 61.9 °F - 12.0 °F 14% 29.86 in 9.0 mi West 19.6 mph 31.1 mph N/A   Clear
11:56 AM 65.7 °F - 9.0 °F 11% 29.83 in 12.0 mi West 28.8 mph 35.7 mph N/A   Clear
12:56 PM 69.1 °F - 7.3 °F 9% 29.82 in 12.0 mi West 28.8 mph 36.8 mph N/A   Clear
1:56 PM 70.2 °F - 6.1 °F 8% 29.80 in 11.0 mi West 26.5 mph 39.1 mph N/A   Clear
2:56 PM 72.1 °F - 4.1 °F 7% 29.80 in 8.0 mi West 26.5 mph 38.0 mph N/A   Clear
3:52 PM 71.6 °F - 5.0 °F 7% 29.92 in 7.0 mi West 24.2 mph 32.2 mph N/A   Partly Cloudy
3:56 PM 72.7 °F - 5.2 °F 7% 29.79 in 7.0 mi West 26.5 mph 34.5 mph N/A   Partly Cloudy
4:56 PM 71.2 °F - 6.1 °F 8% 29.78 in 7.0 mi West 16.1 mph 32.2 mph N/A   Clear
5:17 PM 71.6 °F - 6.8 °F 8% 29.91 in 5.0 mi WNW 18.4 mph 25.3 mph N/A   Partly Cloudy
5:56 PM 70.2 °F - 7.7 °F 9% 29.80 in 6.0 mi WNW 18.4 mph 24.2 mph N/A   Clear
6:56 PM 67.1 °F - 8.1 °F 10% 29.81 in 12.0 mi WNW 9.2 mph - N/A   Clear
7:56 PM 57.9 °F - 6.8 °F 13% 29.83 in 12.0 mi NW 6.9 mph - N/A   Clear
8:56 PM 55.6 °F - 5.7 °F 13% 29.85 in 12.0 mi NW 2.3 mph - N/A   Clear
9:56 PM 52.9 °F - 5.5 °F 15% 29.87 in 12.0 mi South 5.8 mph - N/A   Clear
10:56 PM 50.9 °F - 5.5 °F 16% 29.87 in 12.0 mi SSE 10.4 mph - N/A   Clear
11:56 PM 50.5 °F - 5.9 °F 16% 29.87 in 12.0 mi South 9.2 mph - N/A   Clear